Location: Newark
(16.3678°N, 77.8722°E)
Time: 14:17:36
(UTC+00:00)

S-56A Canister/Altair - Pass Details

Date: 19 December 2019
Orbit: 634 x 2498 km, 38.9° (Epoch: 16 January)

Event Time Altitude Azimuth Distance (km) Brightness Sun altitude
Rises 05:14:41 0° 301° (WNW) 5,589 11.5 44.5°
Reaches altitude 10° 05:19:02 10° 313° (NW) 4,808 11.3 45.0°
Maximum altitude 05:30:38 29° 8° (N) 3,807 11.0 46.2°
Drops below altitude 10° 05:42:46 10° 62° (ENE) 5,054 11.8 47.4°
Sets 05:47:28 0° 73° (ENE) 5,913 12.1 47.8°
